Hyannis, MA

7:56 AM EST on January 18, 2018 (GMT -0500)
Barnstable Municipal-Boardman-Polando Field

Weather History for KHYA - December, 2014

Change the Weather History Date:

Monday, December 22, 2014

  Actual Average Record
Temperature  
Mean Temperature 40 °F -  
Max Temperature 48 °F 41 °F 59 °F (2013)
Min Temperature 33 °F 25 °F 3 °F (1942)
Degree Days  
Heating Degree Days 24    
Moisture  
Dew Point 37 °F    
Average Humidity 85    
Maximum Humidity 100    
Minimum Humidity 63    
Precipitation  
Precipitation 0.01 in - - ()
Sea Level Pressure  
Sea Level Pressure 30.31 in    
Wind  
Wind Speed 5 mph (ENE)    
Max Wind Speed 12 mph    
Max Gust Speed 17 mph    
Visibility 10 miles    
Events Rain    
Averages and records for this station are not official NWS values.
T = Trace of Precipitation, MM = Missing Value Source: NWS Daily Summary

Daily Weather History Graph

Daily Weather History Graph

Search for Another Location

Airport or City:

Trip Planner

Search our weather history database for the weather conditions in past years. The results will help you decide how hot, cold, wet, or windy it might be!

Date:

Astronomy

Dec. 22, 2014 Rise Set
Actual Time 7:05 AM EST 4:14 PM EST
Civil Twilight 6:33 AM EST 4:45 PM EST
Nautical Twilight 5:58 AM EST 5:20 PM EST
Astronomical Twilight 5:24 AM EST 5:54 PM EST
Moon 7:14 AM EST (12/22) 5:20 PM EST (12/22)
Length of Visible Light 10h 12m
Length of Day
9h 09m
New Moon, 1% of the Moon is Illuminated
Dec 22
New Moon
Dec 28
First Quarter
Jan 4
Full
Jan 13
Last Quarter
Jan 20
New

Hourly Weather History & Observations

Time (EST) Temp. Windchill Dew Point Humidity Pressure Visibility Wind Dir Wind Speed Gust Speed Precip Events Conditions
12:56 AM 42.1 °F 38.4 °F 37.0 °F 82% 30.31 in 10.0 mi NNE 5.8 mph - N/A   Overcast
1:56 AM 41.0 °F 39.0 °F 37.0 °F 86% 30.32 in 10.0 mi North 3.5 mph - N/A   Overcast
2:56 AM 39.9 °F 36.7 °F 37.0 °F 89% 30.32 in 10.0 mi NNE 4.6 mph - N/A   Overcast
3:28 AM 39.9 °F 36.7 °F 37.0 °F 89% 30.31 in 10.0 mi NNE 4.6 mph - N/A   Scattered Clouds
3:56 AM 37.9 °F 35.5 °F 36.0 °F 93% 30.30 in 10.0 mi NNE 3.5 mph - N/A   Scattered Clouds
4:05 AM 37.9 °F - 36.0 °F 93% 30.30 in 10.0 mi Calm Calm - N/A   Mostly Cloudy
4:49 AM 36.0 °F - 34.0 °F 93% 30.31 in 10.0 mi Calm Calm - N/A   Mostly Cloudy
4:56 AM 36.0 °F - 34.0 °F 93% 30.32 in 10.0 mi Calm Calm - N/A   Scattered Clouds
5:56 AM 33.1 °F 30.0 °F 32.0 °F 96% 30.33 in 10.0 mi North 3.5 mph - N/A   Clear
6:45 AM 37.0 °F - 36.0 °F 96% 30.34 in 10.0 mi Calm Calm - N/A   Overcast
6:56 AM 37.0 °F 33.3 °F 36.0 °F 96% 30.34 in 10.0 mi North 4.6 mph - 0.00 in Rain Light Rain
7:51 AM 37.4 °F 34.9 °F 37.4 °F 100% 30.34 in 10.0 mi NNE 3.5 mph - 0.00 in   Overcast
7:56 AM 37.9 °F 35.5 °F 37.0 °F 97% 30.35 in 10.0 mi NE 3.5 mph - 0.00 in   Overcast
8:56 AM 42.1 °F 37.7 °F 39.0 °F 89% 30.35 in 10.0 mi NE 6.9 mph - 0.01 in   Overcast
9:23 AM 43.0 °F 39.5 °F 39.9 °F 89% 30.35 in 10.0 mi ENE 5.8 mph - N/A   Overcast
9:41 AM 44.1 °F 40.1 °F 39.9 °F 85% 30.35 in 10.0 mi NE 6.9 mph - N/A   Overcast
9:56 AM 45.0 °F 41.2 °F 39.9 °F 82% 30.36 in 10.0 mi NE 6.9 mph - N/A   Overcast
10:56 AM 46.0 °F 41.9 °F 39.9 °F 79% 30.33 in 10.0 mi NE 8.1 mph - 0.00 in   Overcast
11:33 AM 48.0 °F - 36.0 °F 63% 30.30 in 10.0 mi East 8.1 mph 17.3 mph N/A   Mostly Cloudy
11:56 AM 48.0 °F - 36.0 °F 63% 30.30 in 10.0 mi East 11.5 mph - N/A   Scattered Clouds
12:56 PM 46.0 °F 41.4 °F 36.0 °F 68% 30.31 in 10.0 mi East 9.2 mph 16.1 mph N/A   Mostly Cloudy
1:56 PM 46.0 °F 41.9 °F 37.9 °F 73% 30.30 in 10.0 mi East 8.1 mph - N/A   Overcast
2:56 PM 45.0 °F 41.2 °F 37.9 °F 76% 30.28 in 10.0 mi East 6.9 mph - N/A   Overcast
3:56 PM 45.0 °F 40.6 °F 37.9 °F 76% 30.30 in 9.0 mi East 8.1 mph - N/A   Overcast
4:56 PM 45.0 °F 40.6 °F 37.0 °F 74% 30.30 in 10.0 mi East 8.1 mph - N/A   Overcast
5:56 PM 44.1 °F 40.1 °F 36.0 °F 73% 30.30 in 10.0 mi East 6.9 mph - N/A   Overcast
6:56 PM 41.0 °F 38.0 °F 35.1 °F 79% 30.31 in 10.0 mi ENE 4.6 mph - N/A   Clear
7:42 PM 39.0 °F 36.8 °F 35.1 °F 86% 30.30 in 10.0 mi NE 3.5 mph - N/A   Mostly Cloudy
7:56 PM 39.9 °F 35.8 °F 35.1 °F 83% 30.29 in 10.0 mi ENE 5.8 mph - N/A   Overcast
8:56 PM 39.9 °F - 35.1 °F 83% 30.30 in 10.0 mi Calm Calm - N/A   Mostly Cloudy
9:40 PM 37.0 °F - 34.0 °F 89% 30.30 in 10.0 mi Calm Calm - N/A   Mostly Cloudy
9:56 PM 37.9 °F 34.4 °F 36.0 °F 93% 30.30 in 10.0 mi NE 4.6 mph - N/A   Overcast
10:31 PM 39.9 °F 36.7 °F 36.0 °F 86% 30.27 in 10.0 mi ENE 4.6 mph - N/A   Scattered Clouds
10:56 PM 41.0 °F 37.1 °F 37.0 °F 86% 30.27 in 10.0 mi ENE 5.8 mph - N/A   Scattered Clouds
11:45 PM 43.0 °F 39.5 °F 39.0 °F 86% 30.26 in 10.0 mi East 5.8 mph - N/A   Overcast
11:52 PM 42.8 °F 39.3 °F 39.2 °F 87% 30.26 in 10.0 mi Variable 5.8 mph - N/A   Overcast
11:56 PM 43.0 °F 39.5 °F 39.0 °F 86% 30.26 in 10.0 mi East 5.8 mph - N/A   Overcast